TimeCDT,TemperatureF,Dew PointF,Humidity,Sea Level PressureIn,VisibilityMPH,Wind Direction,Wind SpeedMPH,Gust SpeedMPH,PrecipitationIn,Events,Conditions,WindDirDegrees,DateUTC
12:09 AM,43.9,38.7,82,29.99,10.0,Calm,Calm,-,N/A,,Clear,0,2013-05-08 05:09:00
12:29 AM,42.8,38.5,85,29.99,10.0,Calm,Calm,-,N/A,,Clear,0,2013-05-08 05:29:00
12:50 AM,42.4,39.2,88,29.99,10.0,Calm,Calm,-,N/A,,Clear,0,2013-05-08 05:50:00
1:09 AM,42.4,39.4,89,29.99,10.0,Calm,Calm,-,N/A,,Clear,0,2013-05-08 06:09:00
1:29 AM,40.1,37.4,90,29.99,10.0,Calm,Calm,-,N/A,,Clear,0,2013-05-08 06:29:00
1:49 AM,41.9,39.4,91,29.98,10.0,Calm,Calm,-,N/A,,Clear,0,2013-05-08 06:49:00
2:09 AM,40.1,37.6,91,29.98,10.0,Calm,Calm,-,N/A,,Clear,0,2013-05-08 07:09:00
2:30 AM,40.1,38.1,93,29.98,10.0,Calm,Calm,-,N/A,,Clear,0,2013-05-08 07:30:00
2:49 AM,39.6,37.6,93,29.98,10.0,Calm,Calm,-,N/A,,Clear,0,2013-05-08 07:49:00
3:09 AM,37.6,35.6,93,29.98,10.0,Calm,Calm,-,N/A,,Clear,0,2013-05-08 08:09:00
3:30 AM,37.4,35.6,93,29.98,10.0,Calm,Calm,-,N/A,,Clear,0,2013-05-08 08:30:00
3:49 AM,37.4,34.7,90,29.99,10.0,Calm,Calm,-,N/A,,Clear,0,2013-05-08 08:49:00
4:09 AM,37.4,34.9,91,29.99,10.0,Calm,Calm,-,N/A,,Clear,0,2013-05-08 09:09:00
4:30 AM,37.4,35.8,94,29.99,10.0,Calm,Calm,-,N/A,,Clear,0,2013-05-08 09:30:00
4:49 AM,37.4,36.0,95,29.99,7.0,Calm,Calm,-,N/A,,Clear,0,2013-05-08 09:49:00
5:09 AM,34.9,33.3,94,29.99,10.0,Calm,Calm,-,N/A,,Clear,0,2013-05-08 10:09:00
5:30 AM,36.0,34.3,94,29.99,7.0,Calm,Calm,-,N/A,,Scattered Clouds,0,2013-05-08 10:30:00
5:49 AM,37.4,36.0,95,29.99,10.0,Calm,Calm,-,N/A,,Scattered Clouds,0,2013-05-08 10:49:00
6:09 AM,36.1,34.7,94,30.00,7.0,Calm,Calm,-,N/A,,Clear,0,2013-05-08 11:09:00
6:29 AM,34.9,33.8,96,30.00,10.0,Calm,Calm,-,N/A,,Clear,0,2013-05-08 11:29:00
6:49 AM,37.4,36.1,95,30.00,10.0,Calm,Calm,-,N/A,,Clear,0,2013-05-08 11:49:00
7:10 AM,39.6,37.4,92,30.01,10.0,Calm,Calm,-,N/A,,Clear,0,2013-05-08 12:10:00
7:29 AM,42.4,39.4,89,30.01,10.0,Calm,Calm,-,N/A,,Mostly Cloudy,0,2013-05-08 12:29:00
7:49 AM,45.3,40.5,83,30.01,10.0,Calm,Calm,-,N/A,,Mostly Cloudy,0,2013-05-08 12:49:00
8:10 AM,50.0,41.4,72,30.01,10.0,Calm,Calm,-,N/A,,Overcast,0,2013-05-08 13:10:00
8:29 AM,52.7,41.0,64,30.02,10.0,Calm,Calm,-,N/A,,Scattered Clouds,0,2013-05-08 13:29:00
8:49 AM,57.6,41.5,55,30.02,10.0,West,6.9,-,N/A,,Clear,260,2013-05-08 13:49:00
9:09 AM,60.1,42.8,53,30.02,10.0,SW,3.5,-,N/A,,Clear,220,2013-05-08 14:09:00
9:29 AM,62.8,42.3,47,30.01,10.0,Calm,Calm,-,N/A,,Clear,0,2013-05-08 14:29:00
9:49 AM,64.4,42.1,44,30.01,10.0,West,3.5,-,N/A,,Clear,260,2013-05-08 14:49:00
10:09 AM,65.3,42.3,43,30.02,10.0,Calm,Calm,-,N/A,,Clear,0,2013-05-08 15:09:00
10:30 AM,66.6,41.9,41,30.02,10.0,WSW,4.6,-,N/A,,Scattered Clouds,240,2013-05-08 15:30:00
10:49 AM,70.9,43.2,37,30.02,10.0,Calm,Calm,-,N/A,,Scattered Clouds,0,2013-05-08 15:49:00
11:09 AM,72.9,42.3,33,30.02,10.0,WNW,3.5,-,N/A,,Clear,300,2013-05-08 16:09:00
11:30 AM,72.9,40.6,31,30.01,10.0,Calm,Calm,-,N/A,,Clear,0,2013-05-08 16:30:00
11:49 AM,72.9,40.8,31,30.02,10.0,West,3.5,-,N/A,,Scattered Clouds,280,2013-05-08 16:49:00
12:09 PM,72.9,41.2,32,30.02,10.0,Calm,Calm,-,N/A,,Scattered Clouds,0,2013-05-08 17:09:00
12:30 PM,72.9,40.6,31,30.02,10.0,South,3.5,-,N/A,,Scattered Clouds,180,2013-05-08 17:30:00
12:49 PM,72.9,39.4,30,30.01,10.0,West,6.9,-,N/A,,Clear,270,2013-05-08 17:49:00
1:09 PM,75.0,39.2,27,30.00,10.0,SW,9.2,-,N/A,,Clear,220,2013-05-08 18:09:00
1:30 PM,73.0,37.6,28,30.00,10.0,NW,4.6,-,N/A,,Clear,310,2013-05-08 18:30:00
1:49 PM,77.7,39.9,26,30.00,10.0,West,5.8,-,N/A,,Clear,260,2013-05-08 18:49:00
2:09 PM,77.9,39.4,25,30.00,10.0,West,4.6,-,N/A,,Scattered Clouds,270,2013-05-08 19:09:00
2:30 PM,76.6,38.3,25,30.00,10.0,South,8.1,-,N/A,,Overcast,190,2013-05-08 19:30:00
2:49 PM,73.6,37.4,27,30.00,10.0,West,5.8,-,N/A,,Overcast,280,2013-05-08 19:49:00
3:09 PM,72.9,39.6,30,30.00,10.0,South,12.7,18.4,N/A,,Overcast,190,2013-05-08 20:09:00
3:30 PM,72.9,40.5,31,30.00,10.0,SSW,12.7,-,N/A,,Overcast,200,2013-05-08 20:30:00
3:49 PM,72.9,39.9,30,30.00,10.0,SSW,12.7,-,N/A,,Mostly Cloudy,200,2013-05-08 20:49:00
4:09 PM,72.9,40.1,31,30.00,10.0,SSW,6.9,16.1,N/A,,Mostly Cloudy,210,2013-05-08 21:09:00
4:30 PM,72.5,41.5,33,30.00,10.0,NNE,10.4,16.1,N/A,,Overcast,30,2013-05-08 21:30:00
4:49 PM,65.5,44.1,46,30.00,10.0,NNE,11.5,20.7,N/A,Rain,Light Rain,20,2013-05-08 21:49:00
5:09 PM,64.4,45.3,50,30.02,10.0,Calm,Calm,-,N/A,,Overcast,0,2013-05-08 22:09:00
5:29 PM,64.0,46.2,52,30.02,10.0,ENE,4.6,-,N/A,,Overcast,60,2013-05-08 22:29:00
5:49 PM,62.8,46.2,55,30.03,10.0,NNE,4.6,-,N/A,,Overcast,20,2013-05-08 22:49:00
6:10 PM,62.8,48.2,59,30.04,10.0,NNE,5.8,-,N/A,,Overcast,30,2013-05-08 23:10:00
6:29 PM,60.3,47.3,62,30.04,10.0,NE,8.1,-,N/A,,Overcast,40,2013-05-08 23:29:00
6:49 PM,60.1,48.7,66,30.04,10.0,NE,4.6,-,N/A,,Overcast,40,2013-05-08 23:49:00
7:10 PM,60.1,49.5,68,30.04,10.0,Calm,Calm,-,N/A,,Overcast,0,2013-05-09 00:10:00
7:29 PM,58.1,48.7,71,30.04,10.0,NE,3.5,-,N/A,,Overcast,40,2013-05-09 00:29:00
7:49 PM,57.6,49.3,74,30.04,10.0,NE,3.5,-,N/A,,Overcast,50,2013-05-09 00:49:00
8:10 PM,57.6,50.0,76,30.05,10.0,Calm,Calm,-,N/A,,Overcast,0,2013-05-09 01:10:00
8:29 PM,57.6,50.9,78,30.05,10.0,Calm,Calm,-,N/A,,Overcast,0,2013-05-09 01:29:00
8:49 PM,55.9,50.0,80,30.04,10.0,Calm,Calm,-,N/A,,Overcast,0,2013-05-09 01:49:00
9:10 PM,54.1,49.3,84,30.04,10.0,ESE,3.5,-,N/A,,Overcast,110,2013-05-09 02:10:00
9:29 PM,52.7,48.0,84,30.05,10.0,Calm,Calm,-,N/A,,Overcast,0,2013-05-09 02:29:00
9:49 PM,53.1,48.0,83,30.05,10.0,Calm,Calm,-,N/A,,Overcast,0,2013-05-09 02:49:00
10:10 PM,52.7,48.4,85,30.04,10.0,Calm,Calm,-,N/A,,Overcast,0,2013-05-09 03:10:00
10:30 PM,52.7,49.1,88,30.05,10.0,Calm,Calm,-,N/A,,Overcast,0,2013-05-09 03:30:00
10:49 PM,52.7,48.4,85,30.05,10.0,Calm,Calm,-,N/A,,Overcast,0,2013-05-09 03:49:00
11:10 PM,52.7,49.1,88,30.05,10.0,Calm,Calm,-,N/A,,Light Drizzle,0,2013-05-09 04:10:00
11:29 PM,52.7,48.2,85,30.05,10.0,NW,3.5,-,N/A,,Light Drizzle,310,2013-05-09 04:29:00
11:49 PM,52.7,48.2,85,30.05,10.0,Calm,Calm,-,N/A,,Overcast,0,2013-05-09 04:49:00